Location: Espelette
(43.3402°N, 1.4474°W)
Time: 04:58:47
(UTC+00:00)

Cosmos 2150 Rocket - Pass Details

Date: 19 May 2025
Orbit: 745 x 804 km, 74.0° (Epoch: 13 June)

Event Time Altitude Azimuth Distance (km) Brightness Sun altitude
Rises 21:34:16 0° 343° (NNW) 3,295 8.6 -18.1°
Reaches altitude 10° 21:36:43 10° 348° (NNW) 2,370 7.5 -18.4°
Maximum altitude 21:42:01 54° 66° (ENE) 973 4.4 -19.0°
Enters shadow 21:44:06 34° 124° (SE) 1,297 4.7 -19.2°
